Regional Weather Roundup
Issued by NWS

Home | Current Version | Previous Version | Graphics & Text | Print | Product List | Glossary On
Versions: 1 2 3 4 5 6 7 8 9 10 11 12 13 14 15 16 17 18 19 20 21 22 23 24 25 26 27 28 29 30 31 32 33 34 35 36 37 38 39 40 41 42 43 44 45 46 47 48 49 50
000
ASUS45 KPSR 272310
RWRAZ

ARIZONA REGIONAL HOURLY WEATHER ROUNDUP
NATIONAL WEATHER SERVICE PHOENIX AZ
400 PM MST TUE JAN 27 2015

NOTE: FAIR INDICATES FEW OR NO CLOUDS BELOW 12,000 FEET WITH NO
SIGNIFICANT WEATHER AND/OR OBSTRUCTIONS TO VISIBILITY.

AZZ001>003-036-280000-
NORTHWEST ARIZONA

CITY           SKY/WX    TMP DP  RH WIND       PRES   REMARKS
BULLHEAD CITY  FAIR      68  52  56 CALM      30.19F
KINGMAN        PTSUNNY   62  46  55 SW18      30.21S
$$

AZZ004>008-015-016-018-280000-
NORTH CENTRAL ARIZONA

CITY           SKY/WX    TMP DP  RH WIND       PRES   REMARKS
GRAND CANYON   MOSUNNY   49  36  61 SW12G20   30.28F
PRESCOTT       MOSUNNY   58  35  42 S12       30.25S
FLAGSTAFF      MOSUNNY   50  31  48 SW13      30.30S
PAYSON         CLOUDY    57  43  58 SW7       30.29S
$$

AZZ009>014-017-280000-
NORTHEAST ARIZONA

CITY           SKY/WX    TMP DP  RH WIND       PRES   REMARKS
WINSLOW        MOSUNNY   62  39  42 SW14      30.24S
SAINT JOHNS    CLOUDY    59  38  45 CALM      30.26S
WINDOW ROCK    PTSUNNY   57  32  38 W13       30.30S
SHOW LOW       MOSUNNY   54  36  50 S12       30.32F
$$

AZZ023-280000-
GREATER PHOENIX AREA

CITY           SKY/WX    TMP DP  RH WIND       PRES   REMARKS
PHOENIX        PTSUNNY   72  48  42 CALM      30.13F
BUCKEYE          N/A     72  54  53 E8        30.15S
GLENDALE       MOSUNNY   73  48  40 VRB5      30.16F
LUKE AFB       NOT AVBL
DEER VALLEY    MOSUNNY   71  48  43 S5        30.14F
SCOTTSDALE     MOSUNNY   72  48  42 S5        30.16F
MESA-FALCON    PTSUNNY   70  48  46 CALM      30.14F
MESA-GATEWAY   PTSUNNY   68  52  56 SW3       30.17F
CHANDLER       PTSUNNY   72  50  46 CALM      30.15F
$$

AZZ027-028-280000-
SOUTHWEST MARICOPA COUNTY AND PINAL COUNTY

CITY           SKY/WX    TMP DP  RH WIND       PRES   REMARKS
CASA GRANDE    SUNNY     68  52  56 CALM      30.16S
GILA BEND      PTCLDY    73  53  50 N6        30.13F
$$

AZZ503-504-507>509-280000-
SOUTHEAST ARIZONA

CITY           SKY/WX    TMP DP  RH WIND       PRES   REMARKS
TUCSON         SUNNY     74  48  39 N13       30.16F
DAVIS-MONTHAN  SUNNY     72  48  42 NW13      30.14F
RYAN FIELD       N/A     72  50  46 NW15      30.17S
NOGALES        MOSUNNY   72  43  35 VRB6      30.19S
SIERRA VISTA   PTSUNNY   68  39  34 CALM      30.21F
DOUGLAS        MOSUNNY   70  40  33 CALM      30.19F
SAFFORD        SUNNY     70  34  26 CALM      30.17F
$$

AZZ020-021-025-026-031-280000-
SOUTHWEST ARIZONA

CITY           SKY/WX    TMP DP  RH WIND       PRES   REMARKS
YUMA           MOSUNNY   71  56  58 N6        30.15S
$$

CAZ031-033-041-043-047-048-061-280000-
SOUTHERN CALIFORNIA

CITY           SKY/WX    TMP DP  RH WIND       PRES   REMARKS
DOWNTOWN L.A.  SUNNY     70  50  49 VRB5      30.15R
L.A. AIRPORT   MOSUNNY   64  53  67 W15       30.16S
SAN DIEGO      MOSUNNY   68  53  58 NW10      30.16R
BURBANK        MOSUNNY   70  45  40 VRB3      30.14S
ONTARIO        MOSUNNY   70  47  43 SW6       30.14F
RIVERSIDE      MOSUNNY   70  49  47 W6        30.14S
PALM SPRINGS   SUNNY     69  50  50 E6        30.18F
EL CENTRO NAS  PTSUNNY   66  54  65 CALM      30.17S
IMPERIAL       CLOUDY    66  54  65 NW3       30.16F
BLYTHE         SUNNY     68  57  68 W9        30.16F
NEEDLES        SUNNY     68  51  54 CALM      30.18S
$$

NVZ020-UTZ003-280000-
SOUTHERN NEVADA-UTAH

CITY           SKY/WX    TMP DP  RH WIND       PRES   REMARKS
LAS VEGAS      PTSUNNY   61  48  62 E6        30.15F
SALT LAKE CITY PTSUNNY   56  37  49 CALM      30.14F
$$

NMZ009-TXZ055-280000-
NEW MEXICO-WEST TEXAS

CITY           SKY/WX    TMP DP  RH WIND       PRES   REMARKS
ALBUQUERQUE    MOSUNNY   59  27  29 SW3       30.26S
EL PASO        MOSUNNY   68  39  34 CALM      30.20F
$$


........................KEY........................
SKY/WX - SKY CONDITION/WEATHER
TMP    - TEMPERATURE IN FAHRENHEIT
DP     - DEW POINT IN FAHRENHEIT
RH     - RELATIVE HUMIDITY IN PERCENT
WIND   - DIRECTION AND SPEED IN MILES PER HOUR (MPH)
VRB    - VARIABLE WIND DIRECTION
PRES   - MEAN SEA LEVEL PRESSURE IN INCHES OF MERCURY
         F - FALLING PRESSURE   R - RISING PRESSURE
         S - STEADY PRESSURE
VSB    - VISIBILITY IN MILES
HX     - HEAT INDEX IN FAHRENHEIT
WCI    - WIND CHILL INDEX IN FAHRENHEIT
TC     - TEMPERATURE IN CELSIUS WHICH IS ALSO KNOWN AS
         TEMPERATURE IN CENTIGRADE
AFB    - AIR FORCE BASE
         LUKE AFB IS LUKE AIR FORCE BASE
         DAVIS-MONTHAN IS DAVIS-MONTHAN AIR FORCE BASE
NAS    - NAVAL AIR STATION
         EL CENTRO NAS IS EL CENTRO NAVAL AIR STATION
N/A    - NOT AVAILABLE


USA.gov is the U.S. government's official web portal to all federal, state and local government web resources and services.